Regional Weather Roundup
Issued by NWS

Home | Current Version | Previous Version | Graphics & Text | Print | Product List | Glossary On
Versions: 1 2 3 4 5 6 7 8 9 10 11 12 13 14 15 16 17 18 19 20 21 22 23 24 25 26 27 28 29 30 31 32 33 34 35 36 37 38 39 40 41 42 43 44 45 46 47 48 49 50
000
ASUS43 KOAX 032010
RWRNE

WEATHER ROUNDUP FOR NEBRASKA
NATIONAL WEATHER SERVICE OMAHA NE
200 PM CST TUE MAR 03 2015

NOTES: SATELLITE DATA IS BEING USED TO AUGMENT CLOUD COVER ABOVE
       12000 FEET.
       "FAIR" INDICATES FEW OR NO CLOUDS BELOW 12,000 FEET WITH NO
       SIGNIFICANT WEATHER AND/OR OBSTRUCTIONS TO VISIBILITY.

  * THESE STATIONS DO NOT REPORT WEATHER SUCH AS RAIN...SNOW OR FOG.

NEZ001>004-019>022-054>056-032100-
NEBRASKA PANHANDLE

CITY           SKY/WX    TMP DP  RH WIND       PRES   REMARKS
SCOTTSBLUFF    LGT SNOW  21  12  68 NW12      29.94F WCI   9
ALLIANCE       CLOUDY    20  10  65 N13       29.92  WCI   7
CHADRON        SNOW      17  11  77 E6        30.00F VSB 1/2 WCI   9
KIMBALL        LGT SNOW  19  12  73 N12       29.85F WCI   7
SIDNEY         CLOUDY    22   9  57 N13       29.91  WCI  10
$$

NEZ057>060-069>072-079>082-032100-
SOUTHWEST NEBRASKA

CITY           SKY/WX    TMP DP  RH WIND       PRES   REMARKS
NORTH PLATTE   PTSUNNY   30  10  43 N16G24    29.95  WCI  19
IMPERIAL         N/A     30  10  43 N21       29.94  WCI  17
LEXINGTON      FAIR      32  11  41 N22G31    29.93F WCI  20
MCCOOK         FAIR      35  11  36 N21G26    29.93  WCI  24
OGALLALA       CLOUDY    26  11  54 NE14G21   29.96S WCI  14
$$

NEZ005>010-023>029-035>040-094-032100-
NORTH CENTRAL NEBRASKA

CITY           SKY/WX    TMP DP  RH WIND       PRES   REMARKS
VALENTINE      FAIR      20   7  57 N18G29    30.01F WCI   5
AINSWORTH      FAIR      20   7  55 NW23G31   29.96F WCI   4
BROKEN BOW     FAIR      30   9  41 N26G33    29.93  WCI  16
O`NEILL        FAIR      25   9  49 N23G31    29.97F WCI  10
ORD            FAIR      29   7  39 N25G37    29.93F WCI  14
THEDFORD       FAIR      25   5  43 N21G36    29.95F WCI  10
$$

NEZ041-046>049-061>064-073>077-083>087-032100-
SOUTH CENTRAL NEBRASKA

CITY           SKY/WX    TMP DP  RH WIND       PRES   REMARKS
GRAND ISLAND   PTSUNNY   31  13  47 N22G32    29.93  WCI  18
AURORA         FAIR      32  14  47 N25G35    29.92S WCI  19
HASTINGS       CLOUDY    32  12  43 N22G31    29.92  WCI  19
HEBRON         FAIR      35  16  47 N20G29    29.90F WCI  23
HOLDREGE       FAIR      33  11  41 N21G26    29.92F WCI  20
KEARNEY *      PTSUNNY   32  12  43 N21G29    29.92F WCI  20
YORK           CLOUDY    32  16  51 N21G35    29.90S WCI  20
$$

NEZ011>018-030>034-042>045-032100-
NORTHEAST NEBRASKA

CITY           SKY/WX    TMP DP  RH WIND       PRES   REMARKS
NORFOLK        FAIR      29  11  47 N25G36    29.91  WCI  14
ALBION         FAIR      29   7  39 N21G32    29.92S WCI  15
BLAIR          PTSUNNY   33  21  63 NW23G31   29.86R WCI  20
COLUMBUS *     FAIR      30  10  43 N21G32    29.93S WCI  17
FREMONT        FAIR      33  17  52 NW26G35   29.90S WCI  20
TEKAMAH        PTSUNNY   34  19  54 NW28G37   29.89R WCI  21
WAYNE          FAIR      29  12  48 N30G37    29.91S WCI  13
$$

NEZ050>053-065>068-078-088>093-032100-
SOUTHEAST NEBRASKA

CITY           SKY/WX    TMP DP  RH WIND       PRES   REMARKS
LINCOLN        FAIR      36  17  46 N21G30    29.91R WCI  25
OMAHA EPPLEY   CLOUDY    32  22  66 NW23G29   29.87  WCI  19
BEATRICE       FAIR      35  21  55 NW26      29.89R WCI  23
FALLS CITY     PTSUNNY   42  26  53 N17G25    29.83R
NEBRASKA CITY  CLOUDY    34  22  62 N17G28    29.85R WCI  23
PLATTSMOUTH    CLOUDY    32  22  67 NW20      29.86R WCI  20
$$

NEZ044-045-051>053-067-032100-
OMAHA AREA

CITY           SKY/WX    TMP DP  RH WIND       PRES   REMARKS
OMAHA EPPLEY   CLOUDY    32  22  66 NW23G29   29.87  WCI  19
BLAIR          PTSUNNY   33  21  63 NW23G31   29.86R WCI  20
FREMONT        FAIR      33  17  52 NW26G35   29.90S WCI  20
MILLARD        CLOUDY    35  22  58 NW21G28   29.88R WCI  23
OFFUTT AFB     CLOUDY    33  22  65 NW15G25   29.86  WCI  22
PLATTSMOUTH    CLOUDY    32  22  67 NW20      29.86R WCI  20
WAHOO          FAIR      34  16  48 NW23G33   29.89R WCI  21
$$



USA.gov is the U.S. government's official web portal to all federal, state and local government web resources and services.